Time,TemperatureF,DewpointF,PressureIn,WindDirection,WindDirectionDegrees,WindSpeedMPH,WindSpeedGustMPH,Humidity,HourlyPrecipIn,Conditions,Clouds,dailyrainin,SoftwareType,DateUTC
2013-01-09 00:00:00,27.7,24.1,29.14,SSE,158,3.4,4.1,86,0.00,,,0.02,proprietary,2013-01-09 05:00:00,
2013-01-09 00:02:00,27.9,24.5,29.14,SSE,164,4.0,4.8,86,0.00,,,0.02,proprietary,2013-01-09 05:02:00,
2013-01-09 00:05:00,28.8,25.3,29.14,SSE,162,4.0,4.8,86,0.00,,,0.00,proprietary,2013-01-09 05:05:00,
2013-01-09 00:06:00,29.1,25.2,29.14,South,171,4.2,4.8,85,0.00,,,0.00,proprietary,2013-01-09 05:06:00,
2013-01-09 00:11:00,29.4,25.3,29.14,SSE,162,5.9,6.9,84,0.00,,,0.00,proprietary,2013-01-09 05:11:00,
2013-01-09 00:16:00,30.1,25.4,29.13,South,173,5.3,6.2,82,0.00,,,0.00,proprietary,2013-01-09 05:16:00,
2013-01-09 00:21:00,30.4,25.3,29.14,South,177,4.2,5.2,81,0.00,,,0.00,proprietary,2013-01-09 05:21:00,
2013-01-09 00:24:00,31.2,25.6,29.13,South,183,7.3,9.5,79,0.00,,,0.00,proprietary,2013-01-09 05:24:00,
2013-01-09 00:26:00,31.0,25.9,29.13,South,185,7.5,10.3,80,0.00,,,0.00,proprietary,2013-01-09 05:26:00,
2013-01-09 00:34:00,31.1,25.5,29.13,South,180,7.2,8.3,79,0.00,,,0.00,proprietary,2013-01-09 05:34:00,
2013-01-09 00:41:00,31.7,25.6,29.13,South,172,5.1,6.9,77,0.00,,,0.00,proprietary,2013-01-09 05:41:00,
2013-01-09 00:46:00,31.6,25.6,29.12,SSE,166,4.2,5.1,78,0.00,,,0.00,proprietary,2013-01-09 05:46:00,
2013-01-09 00:52:00,31.3,25.2,29.12,SSE,160,3.6,4.7,78,0.00,,,0.00,proprietary,2013-01-09 05:52:00,
2013-01-09 00:57:00,31.1,25.2,29.12,South,183,4.6,6.2,78,0.00,,,0.00,proprietary,2013-01-09 05:57:00,
2013-01-09 01:02:00,31.2,25.1,29.11,SSE,166,6.0,7.2,77,0.00,,,0.00,proprietary,2013-01-09 06:02:00,
2013-01-09 01:08:00,31.0,25.2,29.11,SSE,164,4.9,7.9,78,0.00,,,0.00,proprietary,2013-01-09 06:08:00,
2013-01-09 01:13:00,30.9,24.9,29.11,SSE,161,4.5,6.0,78,0.00,,,0.00,proprietary,2013-01-09 06:13:00,
2013-01-09 01:18:00,30.4,24.2,29.11,SE,140,2.8,3.3,77,0.00,,,0.00,proprietary,2013-01-09 06:18:00,
2013-01-09 01:23:00,29.9,24.3,29.10,SE,127,2.2,2.9,79,0.00,,,0.00,proprietary,2013-01-09 06:23:00,
2013-01-09 01:28:00,29.2,24.1,29.10,SE,127,3.0,3.6,80,0.00,,,0.00,proprietary,2013-01-09 06:28:00,
2013-01-09 01:34:00,28.6,23.9,29.10,SE,146,4.9,6.7,82,0.00,,,0.00,proprietary,2013-01-09 06:34:00,
2013-01-09 01:40:00,28.0,23.6,29.10,SSE,149,4.7,6.0,83,0.00,,,0.00,proprietary,2013-01-09 06:40:00,
2013-01-09 01:45:00,28.6,24.4,29.09,SE,146,4.5,5.2,84,0.00,,,0.00,proprietary,2013-01-09 06:45:00,
2013-01-09 01:50:00,28.1,23.8,29.09,SSE,149,4.2,5.4,83,0.00,,,0.00,proprietary,2013-01-09 06:50:00,
2013-01-09 01:55:00,28.5,24.3,29.09,SSE,150,3.1,3.7,83,0.00,,,0.00,proprietary,2013-01-09 06:55:00,
2013-01-09 02:01:00,28.0,23.8,29.09,SSE,161,2.8,3.2,83,0.00,,,0.00,proprietary,2013-01-09 07:01:00,
2013-01-09 02:06:00,28.0,24.0,29.09,SE,144,3.0,3.3,84,0.00,,,0.00,proprietary,2013-01-09 07:06:00,
2013-01-09 02:12:00,27.8,23.8,29.09,SE,137,3.0,3.7,84,0.00,,,0.00,proprietary,2013-01-09 07:12:00,
2013-01-09 02:17:00,27.9,24.3,29.08,SE,124,2.5,3.6,85,0.00,,,0.00,proprietary,2013-01-09 07:17:00,
2013-01-09 02:23:00,27.4,23.8,29.09,SSE,154,3.3,4.1,86,0.00,,,0.00,proprietary,2013-01-09 07:23:00,
2013-01-09 02:28:00,27.9,24.0,29.09,SSE,154,3.5,4.6,85,0.00,,,0.00,proprietary,2013-01-09 07:28:00,
2013-01-09 02:33:00,28.3,24.5,29.09,SSE,161,3.8,4.4,85,0.00,,,0.00,proprietary,2013-01-09 07:33:00,
2013-01-09 02:38:00,29.0,24.6,29.09,South,173,4.8,6.7,83,0.00,,,0.00,proprietary,2013-01-09 07:38:00,
2013-01-09 02:43:00,29.0,24.8,29.08,SSE,149,5.4,7.1,84,0.00,,,0.00,proprietary,2013-01-09 07:43:00,
2013-01-09 02:48:00,29.6,25.2,29.08,SSE,158,3.5,4.2,83,0.00,,,0.00,proprietary,2013-01-09 07:48:00,
2013-01-09 02:53:00,30.4,25.8,29.09,South,179,4.3,5.4,82,0.00,,,0.00,proprietary,2013-01-09 07:53:00,
2013-01-09 02:58:00,30.9,26.0,29.09,South,185,5.8,7.2,81,0.00,,,0.00,proprietary,2013-01-09 07:58:00,
2013-01-09 03:03:00,31.4,26.3,29.09,South,169,6.0,7.0,81,0.00,,,0.00,proprietary,2013-01-09 08:03:00,
2013-01-09 03:08:00,31.6,26.5,29.08,South,176,7.1,11.3,81,0.00,,,0.00,proprietary,2013-01-09 08:08:00,
2013-01-09 03:14:00,31.9,26.7,29.08,South,172,8.4,10.4,81,0.00,,,0.00,proprietary,2013-01-09 08:14:00,
2013-01-09 03:19:00,32.4,27.1,29.08,South,174,7.6,10.3,80,0.00,,,0.00,proprietary,2013-01-09 08:19:00,
2013-01-09 03:24:00,32.3,27.1,29.08,South,179,8.8,10.4,80,0.00,,,0.00,proprietary,2013-01-09 08:24:00,
2013-01-09 03:29:00,32.4,27.3,29.08,South,185,7.1,8.5,81,0.00,,,0.00,proprietary,2013-01-09 08:29:00,
2013-01-09 03:34:00,32.5,27.3,29.08,South,178,7.0,10.2,80,0.00,,,0.00,proprietary,2013-01-09 08:34:00,
2013-01-09 03:39:00,32.6,27.5,29.08,South,178,7.1,8.6,81,0.00,,,0.00,proprietary,2013-01-09 08:39:00,
2013-01-09 03:44:00,32.7,27.5,29.08,South,169,6.5,7.7,80,0.00,,,0.00,proprietary,2013-01-09 08:44:00,
2013-01-09 03:49:00,32.9,27.6,29.07,South,180,8.6,10.6,80,0.00,,,0.00,proprietary,2013-01-09 08:49:00,
2013-01-09 03:54:00,33.5,27.9,29.07,South,184,7.4,8.8,79,0.00,,,0.00,proprietary,2013-01-09 08:54:00,
2013-01-09 03:59:00,34.0,28.1,29.07,South,185,6.1,8.2,78,0.00,,,0.00,proprietary,2013-01-09 08:59:00,
2013-01-09 04:04:00,34.3,28.3,29.07,SSW,198,9.0,11.5,78,0.00,,,0.00,proprietary,2013-01-09 09:04:00,
2013-01-09 04:09:00,34.4,28.4,29.06,South,182,7.4,8.3,78,0.00,,,0.00,proprietary,2013-01-09 09:09:00,
2013-01-09 04:14:00,34.5,28.4,29.06,SSW,197,7.3,8.7,78,0.00,,,0.00,proprietary,2013-01-09 09:14:00,
2013-01-09 04:19:00,34.5,28.4,29.05,SSW,193,7.8,8.6,78,0.00,,,0.00,proprietary,2013-01-09 09:19:00,
2013-01-09 04:24:00,34.5,28.5,29.05,South,178,6.4,7.9,78,0.00,,,0.00,proprietary,2013-01-09 09:24:00,
2013-01-09 04:29:00,34.5,28.5,29.05,South,184,7.8,8.7,78,0.00,,,0.00,proprietary,2013-01-09 09:29:00,
2013-01-09 04:34:00,34.6,28.5,29.05,SSW,194,8.6,11.4,78,0.00,,,0.00,proprietary,2013-01-09 09:34:00,
2013-01-09 04:39:00,34.7,28.5,29.05,South,185,7.8,10.0,78,0.00,,,0.00,proprietary,2013-01-09 09:39:00,
2013-01-09 04:44:00,34.7,28.5,29.04,SSW,193,6.3,8.8,77,0.00,,,0.00,proprietary,2013-01-09 09:44:00,
2013-01-09 04:49:00,34.7,28.5,29.04,South,184,7.1,9.4,77,0.00,,,0.00,proprietary,2013-01-09 09:49:00,
2013-01-09 04:54:00,34.7,28.5,29.04,SSW,196,7.1,9.1,77,0.00,,,0.00,proprietary,2013-01-09 09:54:00,
2013-01-09 04:59:00,34.8,28.6,29.04,SSW,197,8.5,10.1,77,0.00,,,0.00,proprietary,2013-01-09 09:59:00,
2013-01-09 05:04:00,34.9,28.7,29.04,SSW,199,8.2,10.3,77,0.00,,,0.00,proprietary,2013-01-09 10:04:00,
2013-01-09 05:09:00,35.1,28.8,29.04,SSW,199,8.8,12.0,77,0.00,,,0.00,proprietary,2013-01-09 10:09:00,
2013-01-09 05:14:00,35.4,28.9,29.04,SSW,195,8.4,12.7,76,0.00,,,0.00,proprietary,2013-01-09 10:14:00,
2013-01-09 05:19:00,35.7,29.0,29.04,SSW,207,7.7,10.4,76,0.00,,,0.00,proprietary,2013-01-09 10:19:00,
2013-01-09 05:24:00,35.8,29.1,29.04,SSW,199,6.8,10.2,76,0.00,,,0.00,proprietary,2013-01-09 10:24:00,
2013-01-09 05:29:00,35.8,29.1,29.05,SSW,202,8.1,10.6,76,0.00,,,0.00,proprietary,2013-01-09 10:29:00,
2013-01-09 05:34:00,35.9,29.2,29.05,SSW,200,5.3,7.0,76,0.00,,,0.00,proprietary,2013-01-09 10:34:00,
2013-01-09 05:39:00,35.9,29.2,29.05,SSW,209,4.7,5.4,76,0.00,,,0.00,proprietary,2013-01-09 10:39:00,
2013-01-09 05:44:00,35.9,29.2,29.05,SW,221,3.3,5.3,76,0.00,,,0.00,proprietary,2013-01-09 10:44:00,
2013-01-09 05:49:00,36.0,29.2,29.05,SSW,204,6.3,9.4,76,0.00,,,0.00,proprietary,2013-01-09 10:49:00,
2013-01-09 05:54:00,35.9,29.4,29.04,SSW,201,5.2,9.3,77,0.00,,,0.00,proprietary,2013-01-09 10:54:00,
2013-01-09 05:59:00,35.8,29.5,29.04,South,176,5.2,7.2,77,0.00,,,0.00,proprietary,2013-01-09 10:59:00,
2013-01-09 06:04:00,35.7,29.6,29.02,SSW,199,8.3,9.7,78,0.00,,,0.00,proprietary,2013-01-09 11:04:00,
2013-01-09 06:09:00,36.0,29.7,29.03,SSW,205,5.9,10.7,77,0.00,,,0.00,proprietary,2013-01-09 11:09:00,
2013-01-09 06:14:00,36.2,29.8,29.03,SSW,208,5.7,6.9,77,0.00,,,0.00,proprietary,2013-01-09 11:14:00,
2013-01-09 06:19:00,36.3,29.8,29.02,SSW,205,4.9,6.2,77,0.00,,,0.00,proprietary,2013-01-09 11:19:00,
2013-01-09 06:24:00,36.3,30.0,29.01,South,179,5.5,6.7,77,0.00,,,0.00,proprietary,2013-01-09 11:24:00,
2013-01-09 06:29:00,36.4,30.1,29.02,South,191,5.9,9.1,77,0.00,,,0.00,proprietary,2013-01-09 11:29:00,
2013-01-09 06:35:00,36.3,30.1,29.02,South,185,5.8,6.6,78,0.00,,,0.00,proprietary,2013-01-09 11:35:00,
2013-01-09 06:40:00,36.1,30.2,29.02,SSW,196,8.3,12.0,78,0.00,,,0.00,proprietary,2013-01-09 11:40:00,
2013-01-09 06:45:00,36.1,30.1,29.02,SSW,196,4.5,5.9,78,0.00,,,0.00,proprietary,2013-01-09 11:45:00,
2013-01-09 06:50:00,36.2,30.2,29.02,SSW,207,7.0,8.9,78,0.00,,,0.00,proprietary,2013-01-09 11:50:00,
2013-01-09 06:55:00,36.1,30.3,29.03,SSW,209,8.2,9.9,79,0.00,,,0.00,proprietary,2013-01-09 11:55:00,
2013-01-09 07:00:00,36.1,30.3,29.03,SSW,207,4.3,6.3,79,0.00,,,0.00,proprietary,2013-01-09 12:00:00,
2013-01-09 07:05:00,36.1,30.4,29.03,SSW,204,7.2,10.7,79,0.00,,,0.00,proprietary,2013-01-09 12:05:00,
2013-01-09 07:10:00,36.1,30.3,29.02,South,191,6.6,9.0,79,0.00,,,0.00,proprietary,2013-01-09 12:10:00,
2013-01-09 07:15:00,35.9,30.3,29.02,SSW,205,4.9,6.1,79,0.00,,,0.00,proprietary,2013-01-09 12:15:00,
2013-01-09 07:20:00,35.9,30.4,29.03,SSW,205,5.6,7.4,80,0.00,,,0.00,proprietary,2013-01-09 12:20:00,
2013-01-09 07:25:00,36.0,30.3,29.03,SSW,195,4.9,5.9,79,0.00,,,0.00,proprietary,2013-01-09 12:25:00,
2013-01-09 07:30:00,35.8,30.3,29.02,SSW,194,6.6,8.4,80,0.00,,,0.00,proprietary,2013-01-09 12:30:00,
2013-01-09 07:35:00,35.6,30.3,29.03,SSW,203,7.5,8.5,80,0.00,,,0.00,proprietary,2013-01-09 12:35:00,
2013-01-09 07:40:00,35.8,30.3,29.03,SSW,199,6.4,7.5,80,0.00,,,0.00,proprietary,2013-01-09 12:40:00,
2013-01-09 07:45:00,35.8,30.5,29.03,SSW,206,5.8,7.9,80,0.00,,,0.00,proprietary,2013-01-09 12:45:00,
2013-01-09 07:50:00,35.8,30.4,29.04,SW,217,5.0,6.3,80,0.00,,,0.00,proprietary,2013-01-09 12:50:00,
2013-01-09 07:55:00,35.9,30.6,29.05,SW,217,5.1,7.0,80,0.00,,,0.00,proprietary,2013-01-09 12:55:00,
2013-01-09 08:00:00,36.0,30.5,29.05,SSW,213,4.3,6.2,80,0.00,,,0.00,proprietary,2013-01-09 13:00:00,
2013-01-09 08:05:00,36.0,30.7,29.05,SSW,202,6.3,9.1,80,0.00,,,0.00,proprietary,2013-01-09 13:05:00,
2013-01-09 08:10:00,36.3,30.6,29.05,SSW,206,5.9,7.3,79,0.00,,,0.00,proprietary,2013-01-09 13:10:00,
2013-01-09 08:15:00,36.6,31.0,29.05,SW,217,5.7,10.8,79,0.00,,,0.00,proprietary,2013-01-09 13:15:00,
2013-01-09 08:20:00,36.8,30.9,29.05,SSW,198,3.2,4.1,78,0.00,,,0.00,proprietary,2013-01-09 13:20:00,
2013-01-09 08:25:00,36.9,31.0,29.05,SW,226,3.6,4.9,78,0.00,,,0.00,proprietary,2013-01-09 13:25:00,
2013-01-09 08:30:00,37.2,30.9,29.05,SW,229,4.7,5.6,77,0.00,,,0.00,proprietary,2013-01-09 13:30:00,
2013-01-09 08:35:00,37.3,31.0,29.06,SW,225,3.5,4.3,77,0.00,,,0.00,proprietary,2013-01-09 13:35:00,
2013-01-09 08:40:00,37.6,31.0,29.06,SW,229,5.0,8.4,76,0.00,,,0.00,proprietary,2013-01-09 13:40:00,
2013-01-09 08:45:00,38.3,31.1,29.07,SW,214,5.0,7.3,75,0.00,,,0.00,proprietary,2013-01-09 13:45:00,
2013-01-09 08:50:00,38.7,31.2,29.07,WSW,237,5.8,9.4,74,0.00,,,0.00,proprietary,2013-01-09 13:50:00,
2013-01-09 08:55:00,39.1,31.3,29.07,SW,224,4.7,7.4,73,0.00,,,0.00,proprietary,2013-01-09 13:55:00,
2013-01-09 09:00:00,39.6,31.3,29.07,SW,226,5.9,8.5,71,0.00,,,0.00,proprietary,2013-01-09 14:00:00,
2013-01-09 09:05:00,39.7,31.3,29.07,SW,234,6.2,8.9,71,0.00,,,0.00,proprietary,2013-01-09 14:05:00,
2013-01-09 09:10:00,39.8,31.4,29.08,WSW,250,9.4,12.5,71,0.00,,,0.00,proprietary,2013-01-09 14:10:00,
2013-01-09 09:15:00,39.9,31.4,29.07,SW,223,7.5,9.8,71,0.00,,,0.00,proprietary,2013-01-09 14:15:00,
2013-01-09 09:20:00,39.9,31.3,29.08,WSW,254,7.2,10.7,71,0.00,,,0.00,proprietary,2013-01-09 14:20:00,
2013-01-09 09:25:00,40.0,31.3,29.09,WSW,241,6.8,8.6,70,0.01,,,0.01,proprietary,2013-01-09 14:25:00,
2013-01-09 09:30:00,39.8,31.3,29.09,WSW,244,6.2,10.9,71,0.01,,,0.01,proprietary,2013-01-09 14:30:00,
2013-01-09 09:35:00,39.9,31.3,29.09,SW,230,5.9,8.4,71,0.01,,,0.01,proprietary,2013-01-09 14:35:00,
2013-01-09 09:40:00,39.8,31.4,29.09,SW,229,8.3,17.6,71,0.01,,,0.01,proprietary,2013-01-09 14:40:00,
2013-01-09 09:45:00,40.1,31.3,29.09,SW,221,6.6,10.4,70,0.01,,,0.01,proprietary,2013-01-09 14:45:00,
2013-01-09 09:50:00,40.0,31.3,29.09,WSW,249,8.6,13.2,70,0.02,,,0.02,proprietary,2013-01-09 14:50:00,
2013-01-09 09:55:00,40.0,31.2,29.09,WSW,248,7.9,11.2,70,0.02,,,0.02,proprietary,2013-01-09 14:55:00,
2013-01-09 10:00:00,40.1,31.2,29.09,WSW,253,6.7,10.3,70,0.02,,,0.02,proprietary,2013-01-09 15:00:00,
2013-01-09 10:05:00,40.0,31.2,29.10,WSW,240,8.2,11.7,70,0.03,,,0.03,proprietary,2013-01-09 15:05:00,
2013-01-09 10:10:00,40.1,31.1,29.10,WSW,253,3.5,5.9,70,0.03,,,0.03,proprietary,2013-01-09 15:10:00,
2013-01-09 10:15:00,40.1,31.2,29.10,WSW,247,8.1,12.3,70,0.03,,,0.03,proprietary,2013-01-09 15:15:00,
2013-01-09 10:20:00,40.2,31.1,29.10,SW,236,5.9,10.1,69,0.03,,,0.03,proprietary,2013-01-09 15:20:00,
2013-01-09 10:25:00,40.3,31.0,29.11,WSW,246,4.7,8.2,69,0.02,,,0.03,proprietary,2013-01-09 15:25:00,
2013-01-09 10:30:00,40.3,30.9,29.11,WSW,245,6.6,10.5,68,0.03,,,0.04,proprietary,2013-01-09 15:30:00,
2013-01-09 10:36:00,40.4,30.9,29.12,WSW,243,4.6,7.3,68,0.03,,,0.04,proprietary,2013-01-09 15:36:00,
2013-01-09 10:41:00,40.3,30.8,29.12,WSW,257,6.0,8.7,68,0.04,,,0.05,proprietary,2013-01-09 15:41:00,
2013-01-09 10:46:00,40.5,30.7,29.12,WSW,244,8.2,11.3,67,0.03,,,0.05,proprietary,2013-01-09 15:46:00,
2013-01-09 10:51:00,40.3,30.3,29.12,West,261,6.4,8.8,67,0.03,,,0.05,proprietary,2013-01-09 15:51:00,
2013-01-09 10:56:00,40.4,30.1,29.12,West,269,7.0,14.5,66,0.03,,,0.05,proprietary,2013-01-09 15:56:00,
2013-01-09 11:01:00,40.5,30.1,29.12,SW,233,7.3,12.9,66,0.04,,,0.06,proprietary,2013-01-09 16:01:00,
2013-01-09 11:06:00,40.4,30.1,29.12,WSW,250,3.9,5.8,66,0.03,,,0.06,proprietary,2013-01-09 16:06:00,
2013-01-09 11:11:00,40.5,30.1,29.12,WSW,250,6.5,11.8,66,0.04,,,0.07,proprietary,2013-01-09 16:11:00,
2013-01-09 11:16:00,40.4,30.0,29.12,WSW,248,4.2,7.8,65,0.04,,,0.07,proprietary,2013-01-09 16:16:00,
2013-01-09 11:21:00,40.6,29.9,29.12,WSW,249,4.0,5.2,65,0.04,,,0.07,proprietary,2013-01-09 16:21:00,
2013-01-09 11:26:00,40.8,29.8,29.12,WSW,241,6.6,9.6,64,0.04,,,0.07,proprietary,2013-01-09 16:26:00,
2013-01-09 11:31:00,40.9,29.7,29.12,WSW,257,6.9,12.3,63,0.03,,,0.07,proprietary,2013-01-09 16:31:00,
2013-01-09 11:37:00,41.1,29.7,29.12,West,276,3.4,6.0,63,0.03,,,0.07,proprietary,2013-01-09 16:37:00,
2013-01-09 11:42:00,41.0,29.2,29.12,WSW,240,2.9,7.2,62,0.02,,,0.07,proprietary,2013-01-09 16:42:00,
2013-01-09 11:47:00,41.0,29.7,29.12,SW,231,5.7,7.5,63,0.02,,,0.07,proprietary,2013-01-09 16:47:00,
2013-01-09 11:52:00,41.3,29.2,29.12,West,261,7.2,11.8,61,0.02,,,0.07,proprietary,2013-01-09 16:52:00,
2013-01-09 11:57:00,41.4,29.0,29.11,West,268,3.5,5.5,61,0.02,,,0.07,proprietary,2013-01-09 16:57:00,
2013-01-09 12:02:00,41.4,28.9,29.12,West,272,7.0,12.3,60,0.01,,,0.07,proprietary,2013-01-09 17:02:00,
2013-01-09 12:07:00,41.3,29.2,29.12,WSW,250,5.8,9.1,61,0.01,,,0.07,proprietary,2013-01-09 17:07:00,
2013-01-09 12:12:00,41.7,29.1,29.12,West,269,3.5,6.2,60,0.01,,,0.08,proprietary,2013-01-09 17:12:00,
2013-01-09 12:17:00,41.5,28.9,29.11,WSW,251,7.6,16.4,60,0.01,,,0.08,proprietary,2013-01-09 17:17:00,
2013-01-09 12:22:00,41.5,29.2,29.11,WSW,256,4.8,8.6,61,0.01,,,0.08,proprietary,2013-01-09 17:22:00,
2013-01-09 12:27:00,41.8,28.9,29.11,WSW,242,7.4,11.8,59,0.02,,,0.09,proprietary,2013-01-09 17:27:00,
2013-01-09 12:32:00,41.7,29.0,29.11,West,262,4.3,6.5,60,0.02,,,0.09,proprietary,2013-01-09 17:32:00,
2013-01-09 12:37:00,41.6,28.8,29.11,West,270,7.6,12.7,60,0.02,,,0.09,proprietary,2013-01-09 17:37:00,
2013-01-09 12:42:00,41.7,28.9,29.11,WSW,250,4.5,6.6,60,0.02,,,0.09,proprietary,2013-01-09 17:42:00,
2013-01-09 12:47:00,42.0,28.9,29.11,WSW,237,7.8,12.4,59,0.02,,,0.09,proprietary,2013-01-09 17:47:00,
2013-01-09 12:52:00,42.1,28.6,29.11,West,267,5.4,9.0,58,0.02,,,0.09,proprietary,2013-01-09 17:52:00,
2013-01-09 12:57:00,42.0,28.5,29.11,WSW,248,3.8,5.4,58,0.03,,,0.10,proprietary,2013-01-09 17:57:00,
2013-01-09 13:02:00,42.0,28.4,29.11,SW,234,4.6,7.4,58,0.04,,,0.11,proprietary,2013-01-09 18:02:00,
2013-01-09 13:07:00,42.3,28.3,29.11,West,261,8.9,12.9,57,0.04,,,0.11,proprietary,2013-01-09 18:07:00,
2013-01-09 13:12:00,42.2,28.4,29.11,West,267,6.7,9.5,57,0.04,,,0.12,proprietary,2013-01-09 18:12:00,
2013-01-09 13:17:00,42.4,28.5,29.11,West,263,4.8,9.8,57,0.05,,,0.13,proprietary,2013-01-09 18:17:00,
2013-01-09 13:22:00,42.5,28.4,29.11,West,262,6.1,10.9,57,0.06,,,0.14,proprietary,2013-01-09 18:22:00,
2013-01-09 13:27:00,42.5,28.3,29.11,WSW,253,10.7,16.0,56,0.06,,,0.15,proprietary,2013-01-09 18:27:00,
2013-01-09 13:32:00,42.5,28.4,29.11,WSW,253,11.6,17.6,57,0.06,,,0.15,proprietary,2013-01-09 18:32:00,
2013-01-09 13:37:00,42.5,28.3,29.11,WSW,251,10.2,16.7,56,0.08,,,0.17,proprietary,2013-01-09 18:37:00,
2013-01-09 13:42:00,42.6,28.4,29.11,WSW,249,6.5,11.6,56,0.09,,,0.18,proprietary,2013-01-09 18:42:00,
2013-01-09 13:44:00,42.6,28.6,29.11,WSW,256,6.8,8.1,57,0.09,,,0.18,proprietary,2013-01-09 18:44:00,
2013-01-09 13:46:00,42.7,28.2,29.11,WSW,254,9.1,17.3,56,0.09,,,0.18,proprietary,2013-01-09 18:46:00,
2013-01-09 13:47:00,42.8,28.2,29.12,WSW,251,6.4,14.0,56,0.10,,,0.19,proprietary,2013-01-09 18:47:00,
2013-01-09 13:49:00,42.8,28.3,29.12,West,265,7.3,9.6,56,0.10,,,0.19,proprietary,2013-01-09 18:49:00,
2013-01-09 13:50:00,42.8,28.2,29.12,WSW,248,7.6,11.4,55,0.10,,,0.19,proprietary,2013-01-09 18:50:00,
2013-01-09 13:55:00,43.2,27.9,29.12,SW,236,9.4,13.9,54,0.10,,,0.20,proprietary,2013-01-09 18:55:00,
2013-01-09 14:00:00,43.0,27.5,29.12,WSW,251,6.2,12.1,54,0.11,,,0.21,proprietary,2013-01-09 19:00:00,
2013-01-09 14:05:00,43.0,28.1,29.12,WSW,250,5.8,7.8,55,0.10,,,0.21,proprietary,2013-01-09 19:05:00,
2013-01-09 14:10:00,42.8,27.9,29.12,West,262,8.1,10.7,55,0.10,,,0.22,proprietary,2013-01-09 19:10:00,
2013-01-09 14:12:00,42.8,27.9,29.12,West,270,7.9,13.0,55,0.10,,,0.22,proprietary,2013-01-09 19:12:00,
2013-01-09 14:17:00,43.1,27.7,29.12,WSW,252,10.9,17.5,54,0.10,,,0.23,proprietary,2013-01-09 19:17:00,
2013-01-09 14:22:00,43.1,27.5,29.12,West,261,7.0,9.7,53,0.10,,,0.24,proprietary,2013-01-09 19:22:00,
2013-01-09 14:27:00,43.4,27.2,29.11,West,261,6.6,10.6,52,0.09,,,0.24,proprietary,2013-01-09 19:27:00,
2013-01-09 14:32:00,43.5,26.2,29.12,West,266,11.0,17.4,50,0.10,,,0.25,proprietary,2013-01-09 19:32:00,
2013-01-09 14:37:00,44.0,25.2,29.13,WSW,251,8.4,11.9,47,0.08,,,0.25,proprietary,2013-01-09 19:37:00,
2013-01-09 14:42:00,44.2,25.2,29.13,WSW,245,11.2,15.0,46,0.08,,,0.26,proprietary,2013-01-09 19:42:00,
2013-01-09 14:47:00,44.2,24.5,29.14,SW,235,8.0,9.9,45,0.07,,,0.26,proprietary,2013-01-09 19:47:00,
2013-01-09 14:52:00,44.3,24.6,29.14,WNW,285,7.5,10.1,45,0.08,,,0.27,proprietary,2013-01-09 19:52:00,
2013-01-09 14:56:00,44.3,24.3,29.14,WSW,245,6.9,13.2,44,0.07,,,0.27,proprietary,2013-01-09 19:56:00,
2013-01-09 15:01:00,44.2,24.5,29.14,West,267,8.1,13.5,45,0.07,,,0.28,proprietary,2013-01-09 20:01:00,
2013-01-09 15:06:00,44.2,24.7,29.15,WSW,250,7.7,11.3,46,0.07,,,0.28,proprietary,2013-01-09 20:06:00,
2013-01-09 15:11:00,44.3,24.0,29.15,WSW,254,6.7,10.8,44,0.07,,,0.29,proprietary,2013-01-09 20:11:00,
2013-01-09 15:16:00,44.3,23.9,29.15,WSW,257,8.6,12.6,44,0.06,,,0.29,proprietary,2013-01-09 20:16:00,
2013-01-09 15:21:00,44.4,23.8,29.15,WSW,251,10.7,13.7,43,0.06,,,0.30,proprietary,2013-01-09 20:21:00,
2013-01-09 15:26:00,44.5,23.5,29.15,West,262,11.8,16.6,43,0.06,,,0.30,proprietary,2013-01-09 20:26:00,
2013-01-09 15:31:00,44.4,23.2,29.15,West,264,11.0,18.2,42,0.06,,,0.31,proprietary,2013-01-09 20:31:00,
2013-01-09 15:36:00,44.5,22.9,29.15,West,266,10.7,17.5,42,0.06,,,0.31,proprietary,2013-01-09 20:36:00,
2013-01-09 15:41:00,44.7,23.2,29.16,West,277,7.1,11.1,42,0.05,,,0.31,proprietary,2013-01-09 20:41:00,
2013-01-09 15:46:00,44.6,23.4,29.16,West,270,4.4,7.4,42,0.06,,,0.32,proprietary,2013-01-09 20:46:00,
2013-01-09 15:51:00,44.6,23.7,29.17,West,265,7.6,14.1,43,0.05,,,0.32,proprietary,2013-01-09 20:51:00,
2013-01-09 15:56:00,44.4,24.0,29.17,West,272,9.1,13.0,44,0.06,,,0.33,proprietary,2013-01-09 20:56:00,
2013-01-09 16:01:00,44.4,24.3,29.17,West,281,7.5,12.6,44,0.05,,,0.33,proprietary,2013-01-09 21:01:00,
2013-01-09 16:06:00,44.4,24.3,29.17,West,277,3.9,6.5,44,0.05,,,0.33,proprietary,2013-01-09 21:06:00,
2013-01-09 16:11:00,44.3,24.1,29.17,WNW,282,11.7,18.5,44,0.04,,,0.33,proprietary,2013-01-09 21:11:00,
2013-01-09 16:16:00,44.3,24.8,29.18,West,271,5.9,10.4,45,0.05,,,0.34,proprietary,2013-01-09 21:16:00,
2013-01-09 16:21:00,44.2,23.8,29.18,WNW,284,5.7,8.2,44,0.04,,,0.34,proprietary,2013-01-09 21:21:00,
2013-01-09 16:26:00,44.3,23.1,29.19,West,266,4.3,8.9,42,0.04,,,0.34,proprietary,2013-01-09 21:26:00,
2013-01-09 16:32:00,44.1,22.4,29.19,WSW,257,3.2,5.2,41,0.03,,,0.34,proprietary,2013-01-09 21:32:00,
2013-01-09 16:37:00,43.7,23.2,29.20,West,270,8.0,11.6,44,0.03,,,0.34,proprietary,2013-01-09 21:37:00,
2013-01-09 16:42:00,44.1,21.3,29.20,West,270,6.4,13.5,40,0.02,,,0.34,proprietary,2013-01-09 21:42:00,
2013-01-09 16:47:00,43.7,21.5,29.20,West,278,4.0,6.9,40,0.03,,,0.35,proprietary,2013-01-09 21:47:00,
2013-01-09 16:52:00,43.8,22.1,29.20,West,272,4.0,6.6,41,0.03,,,0.35,proprietary,2013-01-09 21:52:00,
2013-01-09 16:57:00,43.2,22.5,29.20,West,277,5.4,10.7,43,0.02,,,0.35,proprietary,2013-01-09 21:57:00,
2013-01-09 17:02:00,43.2,21.8,29.21,WNW,283,4.3,6.5,42,0.02,,,0.35,proprietary,2013-01-09 22:02:00,
2013-01-09 17:07:00,43.0,21.0,29.20,West,279,3.8,4.9,41,0.02,,,0.35,proprietary,2013-01-09 22:07:00,
2013-01-09 17:12:00,42.8,22.1,29.21,West,270,5.1,6.5,43,0.02,,,0.35,proprietary,2013-01-09 22:12:00,
2013-01-09 17:17:00,43.0,21.2,29.21,West,260,5.5,7.3,41,0.01,,,0.35,proprietary,2013-01-09 22:17:00,
2013-01-09 17:22:00,42.3,21.2,29.22,West,269,3.9,7.8,42,0.01,,,0.35,proprietary,2013-01-09 22:22:00,
2013-01-09 17:27:00,41.9,22.4,29.22,WSW,258,5.3,7.3,45,0.01,,,0.35,proprietary,2013-01-09 22:27:00,
2013-01-09 17:32:00,41.7,21.4,29.23,West,276,4.5,6.6,43,0.01,,,0.35,proprietary,2013-01-09 22:32:00,
2013-01-09 17:37:00,41.6,21.9,29.23,WNW,282,6.3,9.8,44,0.01,,,0.35,proprietary,2013-01-09 22:37:00,
2013-01-09 17:42:00,41.6,20.9,29.23,WNW,283,4.8,9.2,43,0.01,,,0.35,proprietary,2013-01-09 22:42:00,
2013-01-09 17:47:00,41.7,21.0,29.23,West,281,3.3,5.7,43,0.00,,,0.35,proprietary,2013-01-09 22:47:00,
2013-01-09 17:52:00,41.6,21.2,29.24,West,276,5.6,8.2,43,0.00,,,0.35,proprietary,2013-01-09 22:52:00,
2013-01-09 17:57:00,41.4,22.0,29.24,WSW,256,6.8,11.4,45,0.00,,,0.35,proprietary,2013-01-09 22:57:00,
2013-01-09 18:02:00,41.4,21.9,29.25,West,265,4.1,5.3,45,0.00,,,0.35,proprietary,2013-01-09 23:02:00,
2013-01-09 18:07:00,41.0,22.5,29.25,West,279,3.4,7.4,47,0.00,,,0.35,proprietary,2013-01-09 23:07:00,
2013-01-09 18:12:00,41.0,21.5,29.25,West,270,3.0,4.5,45,0.00,,,0.35,proprietary,2013-01-09 23:12:00,
2013-01-09 18:17:00,41.0,22.0,29.26,West,275,5.0,10.8,46,0.00,,,0.35,proprietary,2013-01-09 23:17:00,
2013-01-09 18:22:00,40.7,22.3,29.26,West,270,5.3,8.1,47,0.00,,,0.35,proprietary,2013-01-09 23:22:00,
2013-01-09 18:27:00,40.4,22.0,29.27,WNW,290,4.8,5.9,47,0.00,,,0.35,proprietary,2013-01-09 23:27:00,
2013-01-09 18:32:00,40.1,22.3,29.27,West,279,3.0,4.6,48,0.00,,,0.35,proprietary,2013-01-09 23:32:00,
2013-01-09 18:37:00,39.8,21.8,29.27,WSW,240,3.0,5.9,48,0.00,,,0.35,proprietary,2013-01-09 23:37:00,
2013-01-09 18:42:00,39.9,22.2,29.28,WNW,291,3.8,5.5,48,0.00,,,0.35,proprietary,2013-01-09 23:42:00,
2013-01-09 18:47:00,39.9,21.9,29.29,West,272,4.4,7.1,48,0.00,,,0.35,proprietary,2013-01-09 23:47:00,
2013-01-09 18:52:00,39.9,21.8,29.29,WNW,287,5.8,8.0,47,0.00,,,0.35,proprietary,2013-01-09 23:52:00,
2013-01-09 18:57:00,40.0,22.0,29.30,WNW,283,6.1,8.8,48,0.00,,,0.35,proprietary,2013-01-09 23:57:00,
2013-01-09 19:02:00,40.1,22.4,29.30,West,278,6.2,8.7,48,0.00,,,0.35,proprietary,2013-01-10 00:02:00,
2013-01-09 19:07:00,39.5,22.1,29.31,WNW,283,3.3,6.6,49,0.00,,,0.35,proprietary,2013-01-10 00:07:00,
2013-01-09 19:12:00,39.6,22.1,29.31,West,269,4.7,6.2,49,0.00,,,0.35,proprietary,2013-01-10 00:12:00,
2013-01-09 19:17:00,39.5,22.2,29.31,WNW,289,5.5,7.9,49,0.00,,,0.35,proprietary,2013-01-10 00:17:00,
2013-01-09 19:22:00,39.3,22.2,29.32,WNW,288,6.7,9.4,49,0.00,,,0.35,proprietary,2013-01-10 00:22:00,
2013-01-09 19:27:00,39.0,22.5,29.32,WNW,293,6.0,10.5,51,0.00,,,0.35,proprietary,2013-01-10 00:27:00,
2013-01-09 19:32:00,39.1,22.6,29.32,WNW,289,6.6,10.0,51,0.00,,,0.35,proprietary,2013-01-10 00:32:00,
2013-01-09 19:37:00,38.9,22.5,29.33,West,278,5.2,7.1,51,0.00,,,0.35,proprietary,2013-01-10 00:37:00,
2013-01-09 19:42:00,38.7,22.6,29.33,West,281,4.2,5.3,51,0.00,,,0.35,proprietary,2013-01-10 00:42:00,
2013-01-09 19:47:00,38.8,22.8,29.34,WNW,294,7.3,9.8,52,0.00,,,0.35,proprietary,2013-01-10 00:47:00,
2013-01-09 19:52:00,38.7,23.0,29.33,WNW,292,10.9,15.9,52,0.00,,,0.35,proprietary,2013-01-10 00:52:00,
2013-01-09 19:57:00,38.5,23.0,29.33,WNW,297,9.0,12.5,53,0.00,,,0.35,proprietary,2013-01-10 00:57:00,
2013-01-09 20:02:00,38.4,23.0,29.33,NW,308,11.3,14.3,53,0.00,,,0.35,proprietary,2013-01-10 01:02:00,
2013-01-09 20:07:00,38.3,23.2,29.33,WNW,292,6.8,10.8,54,0.00,,,0.35,proprietary,2013-01-10 01:07:00,
2013-01-09 20:12:00,38.1,23.4,29.34,WNW,301,7.8,10.8,55,0.00,,,0.35,proprietary,2013-01-10 01:12:00,
2013-01-09 20:17:00,37.9,23.4,29.33,WNW,293,6.8,9.1,55,0.00,,,0.35,proprietary,2013-01-10 01:17:00,
2013-01-09 20:22:00,37.5,23.7,29.34,WNW,292,8.8,12.2,57,0.00,,,0.35,proprietary,2013-01-10 01:22:00,
2013-01-09 20:27:00,37.5,23.6,29.34,WNW,294,9.1,12.4,56,0.00,,,0.35,proprietary,2013-01-10 01:27:00,
2013-01-09 20:32:00,37.5,23.7,29.34,WNW,299,10.8,13.3,57,0.00,,,0.35,proprietary,2013-01-10 01:32:00,
2013-01-09 20:37:00,37.4,23.8,29.34,WNW,303,8.3,11.4,57,0.00,,,0.35,proprietary,2013-01-10 01:37:00,
2013-01-09 20:42:00,37.1,23.8,29.34,NW,306,9.1,11.0,58,0.00,,,0.35,proprietary,2013-01-10 01:42:00,
2013-01-09 20:47:00,36.9,24.0,29.34,WNW,300,11.2,15.9,59,0.00,,,0.35,proprietary,2013-01-10 01:47:00,
2013-01-09 20:52:00,36.9,24.0,29.35,WNW,302,7.4,8.5,59,0.00,,,0.35,proprietary,2013-01-10 01:52:00,
2013-01-09 20:57:00,36.9,24.0,29.34,WNW,303,7.3,9.7,59,0.00,,,0.35,proprietary,2013-01-10 01:57:00,
2013-01-09 21:02:00,36.8,24.2,29.35,NW,314,8.9,10.1,59,0.00,,,0.35,proprietary,2013-01-10 02:02:00,
2013-01-09 21:07:00,36.7,24.2,29.35,WNW,303,9.1,12.9,60,0.00,,,0.35,proprietary,2013-01-10 02:07:00,
2013-01-09 21:12:00,36.5,24.3,29.35,WNW,294,6.8,8.6,60,0.00,,,0.35,proprietary,2013-01-10 02:12:00,
2013-01-09 21:17:00,36.5,24.4,29.36,WNW,303,6.8,9.7,61,0.00,,,0.35,proprietary,2013-01-10 02:17:00,
2013-01-09 21:22:00,36.4,24.5,29.36,NW,304,7.2,10.1,61,0.00,,,0.35,proprietary,2013-01-10 02:22:00,
2013-01-09 21:27:00,36.2,24.5,29.36,NW,309,5.5,7.8,62,0.00,,,0.35,proprietary,2013-01-10 02:27:00,
2013-01-09 21:32:00,36.0,24.6,29.36,WNW,303,6.8,8.4,62,0.00,,,0.35,proprietary,2013-01-10 02:32:00,
2013-01-09 21:37:00,35.9,24.6,29.36,NW,310,4.8,6.5,63,0.00,,,0.35,proprietary,2013-01-10 02:37:00,
2013-01-09 21:43:00,35.7,24.7,29.36,NW,309,7.1,9.8,63,0.00,,,0.35,proprietary,2013-01-10 02:43:00,
2013-01-09 21:48:00,35.7,24.8,29.36,WNW,302,7.3,8.9,64,0.00,,,0.35,proprietary,2013-01-10 02:48:00,
2013-01-09 21:53:00,35.5,24.8,29.36,NW,305,9.5,11.5,64,0.00,,,0.35,proprietary,2013-01-10 02:53:00,
2013-01-09 21:58:00,35.6,24.9,29.36,WNW,293,7.0,10.1,64,0.00,,,0.35,proprietary,2013-01-10 02:58:00,
2013-01-09 22:04:00,35.3,25.0,29.37,WNW,298,6.9,9.8,65,0.00,,,0.35,proprietary,2013-01-10 03:04:00,
2013-01-09 22:09:00,35.3,25.0,29.38,WNW,298,6.3,10.0,65,0.00,,,0.35,proprietary,2013-01-10 03:09:00,
2013-01-09 22:14:00,35.4,25.1,29.38,NW,309,5.7,8.7,65,0.00,,,0.35,proprietary,2013-01-10 03:14:00,
2013-01-09 22:19:00,35.2,25.2,29.38,NW,308,5.9,7.3,66,0.00,,,0.35,proprietary,2013-01-10 03:19:00,
2013-01-09 22:24:00,35.1,25.2,29.38,NW,312,6.8,10.1,66,0.00,,,0.35,proprietary,2013-01-10 03:24:00,
2013-01-09 22:29:00,35.0,25.2,29.38,WNW,303,5.6,7.3,67,0.00,,,0.35,proprietary,2013-01-10 03:29:00,
2013-01-09 22:34:00,34.9,25.2,29.38,NW,318,5.4,7.8,67,0.00,,,0.35,proprietary,2013-01-10 03:34:00,
2013-01-09 22:39:00,34.8,25.3,29.38,NW,314,5.8,7.5,67,0.00,,,0.35,proprietary,2013-01-10 03:39:00,
2013-01-09 22:44:00,34.8,25.3,29.38,WNW,298,5.9,7.4,67,0.00,,,0.35,proprietary,2013-01-10 03:44:00,
2013-01-09 22:49:00,34.7,25.4,29.38,NW,318,6.6,8.4,68,0.00,,,0.35,proprietary,2013-01-10 03:49:00,
2013-01-09 22:57:00,34.6,25.4,29.38,NW,304,3.6,4.8,68,0.00,,,0.35,proprietary,2013-01-10 03:57:00,
2013-01-09 23:03:00,34.4,25.4,29.39,WNW,285,2.3,5.8,69,0.00,,,0.35,proprietary,2013-01-10 04:03:00,
2013-01-09 23:08:00,33.9,25.0,29.39,West,266,0.3,1.3,69,0.00,,,0.35,proprietary,2013-01-10 04:08:00,
2013-01-09 23:13:00,33.1,24.8,29.39,North,0,0.0,0.0,71,0.00,,,0.35,proprietary,2013-01-10 04:13:00,
2013-01-09 23:18:00,32.6,24.6,29.39,North,0,0.0,0.0,71,0.00,,,0.35,proprietary,2013-01-10 04:18:00,
2013-01-09 23:23:00,32.4,24.5,29.40,SW,224,1.0,1.4,72,0.00,,,0.35,proprietary,2013-01-10 04:23:00,
2013-01-09 23:28:00,31.5,23.9,29.40,SSW,198,2.1,2.5,73,0.00,,,0.35,proprietary,2013-01-10 04:28:00,
2013-01-09 23:33:00,30.5,24.1,29.41,SSW,197,2.0,2.2,76,0.00,,,0.35,proprietary,2013-01-10 04:33:00,
2013-01-09 23:38:00,30.1,24.2,29.41,South,179,2.5,2.7,78,0.00,,,0.35,proprietary,2013-01-10 04:38:00,
2013-01-09 23:43:00,29.7,23.5,29.41,South,169,0.2,1.1,77,0.00,,,0.35,proprietary,2013-01-10 04:43:00,
2013-01-09 23:48:00,28.8,23.0,29.41,South,169,0.9,1.4,78,0.00,,,0.35,proprietary,2013-01-10 04:48:00,
2013-01-09 23:53:00,28.4,22.8,29.42,SSE,168,0.8,1.5,79,0.00,,,0.35,proprietary,2013-01-10 04:53:00,
2013-01-09 23:58:00,28.1,22.9,29.42,SSE,158,1.7,1.9,80,0.00,,,0.35,proprietary,2013-01-10 04:58:00,